Вернуться в каталог

NOAA 16 DEB

АктивенSSO
NORAD 41538·DEBRIS·🇺🇸 United States

Запущен Sep 21, 2000 с Vandenberg Space Force Base

Loading…

Ближайшие Пролёты (ближайшие 24 часа)

TLE

УстаревающийSource: Space-Track

Эпоха: Sep 10, 2026, 06:19 UTC

1 41538U 00055NN  26253.26386948  .00002418  00000-0  11721-2 0  9994
2 41538  98.7591 252.8733 0045446  31.1104 329.2748 14.18775405544678

Отслеживайте NOAA 16 DEB в реальном времени с AllMySat

Download on the App Store